Theta_e
332 334 333 332 332 339 345 344 341 339 336 334 336 334 332 330 329 328 326 325 325 325 325 326 325 325 326 326 326 326 325 326 327 327 328 329 330 333 340 340 340 340 339 338 337 337 336 335 334 332 331 331 330 329 327 329 328 328 329 329 331 335 335 336 334 334 333 332 332 331 329 328 327 327 326 326 325 324 323 324 323 323 322 322 321
329 329 332 332 332 333 342 343 340 338 335 334 334 333 331 329 328 327 326 324 325 325 326 324 325 326 326 326 325 327 326 325 326 327 328 329 330 332 337 340 338 339 340 339 338 338 337 336 335 334 332 331 331 330 328 329 329 329 330 331 331 333 335 335 335 333 332 331 331 328 328 328 327 327 326 325 324 324 324 323 323 322 322 321 321
327 324 331 331 331 333 336 340 339 338 336 334 334 334 332 330 329 327 326 324 325 325 326 325 324 326 328 327 326 326 327 326 326 326 327 329 330 331 333 339 339 338 338 338 339 338 337 337 336 334 333 333 331 331 329 328 329 330 329 331 331 332 333 334 335 333 332 331 331 331 329 327 326 326 325 324 324 323 323 323 322 322 321 321 320
330 321 326 328 331 332 334 338 338 338 336 334 333 333 332 331 330 329 327 326 326 325 325 324 324 324 326 327 327 326 326 326 325 326 327 328 329 330 331 334 339 339 338 337 338 339 338 337 336 336 334 334 333 331 330 329 330 329 330 331 333 332 332 334 335 334 332 331 331 330 329 327 326 326 325 323 323 323 322 322 321 321 321 321 321
330 331 328 330 332 332 335 337 339 337 336 334 334 332 331 330 329 331 329 328 328 327 328 325 325 325 326 327 326 326 326 325 326 326 326 328 328 329 330 331 335 337 336 338 337 338 339 339 337 336 335 334 334 333 332 330 328 329 329 330 332 332 332 333 335 334 332 331 331 330 329 327 326 325 324 324 323 322 321 321 320 320 320 320 320
331 330 328 327 329 333 335 335 337 336 335 334 333 332 331 330 330 330 333 329 328 328 327 327 325 325 326 327 326 327 325 325 326 326 326 327 328 328 329 330 331 334 335 338 338 336 336 338 339 337 336 335 334 334 332 331 329 329 330 330 331 330 331 333 334 334 332 332 331 330 329 328 326 325 324 323 322 321 321 321 320 319 319 318 318
332 330 326 328 330 332 334 334 335 335 334 334 333 333 332 331 330 330 330 330 329 328 326 324 324 325 326 327 327 326 325 326 325 325 326 326 327 328 329 329 330 331 333 333 336 337 335 336 339 340 338 336 335 335 334 333 331 331 330 330 331 330 331 333 334 335 333 332 331 330 329 327 326 325 324 323 322 321 321 320 320 319 319 318 318
332 330 327 329 330 331 333 336 336 335 335 334 334 332 332 331 332 331 329 329 328 328 326 326 325 325 326 326 327 327 326 325 325 325 326 326 326 328 328 329 329 329 332 332 332 333 335 335 336 337 339 338 336 336 335 334 332 332 331 331 332 332 330 332 334 335 334 333 331 330 329 328 326 325 324 323 322 321 321 320 319 319 319 318 317
331 331 329 331 330 330 333 334 332 332 332 334 334 332 331 333 330 332 331 330 331 329 329 325 324 324 324 326 327 326 326 326 325 326 326 326 326 327 327 328 329 332 331 331 330 330 332 335 336 335 336 337 338 337 336 336 333 333 332 331 331 333 331 329 332 335 335 333 331 331 329 328 326 325 324 323 322 321 320 320 319 319 318 318 317
333 334 332 330 330 330 331 331 332 331 331 333 332 332 330 331 330 330 331 330 329 330 329 328 326 325 325 324 326 326 326 326 326 327 326 326 326 326 327 328 328 329 330 330 329 329 329 331 335 335 336 334 335 337 337 337 335 334 334 332 332 333 333 330 330 334 336 334 332 331 329 327 326 325 324 323 323 321 320 320 319 319 318 317 317
334 334 330 329 329 329 330 331 331 331 331 329 330 331 329 330 330 329 331 330 330 331 330 329 328 328 327 326 325 326 327 327 326 326 326 326 327 327 326 327 327 328 328 329 329 329 329 329 331 334 335 334 335 337 337 337 336 335 334 334 333 334 334 332 331 331 336 335 333 331 330 328 326 325 324 323 323 322 321 320 319 319 318 318 317
325 327 328 329 328 328 330 330 331 331 328 326 327 326 328 328 328 329 329 331 332 332 332 330 330 328 326 326 325 325 326 326 326 325 326 326 327 328 327 327 327 327 327 328 328 328 328 328 329 331 333 334 334 335 336 336 336 337 336 336 335 334 334 333 332 331 333 336 334 333 330 329 327 326 325 324 323 322 321 321 319 319 318 318 317
320 319 321 326 322 322 325 327 328 329 327 326 328 330 331 330 329 327 329 328 329 332 332 331 327 324 323 324 324 325 325 326 325 325 325 326 326 326 328 327 327 326 327 327 327 328 328 328 328 329 331 333 334 335 333 333 334 337 337 336 336 334 335 334 334 333 331 335 335 333 331 329 328 326 325 325 323 322 322 320 320 318 318 318 317
321 318 317 317 319 320 321 322 324 325 327 327 327 328 330 329 328 325 327 327 325 329 329 329 324 321 319 320 321 323 323 323 323 324 325 325 326 325 326 327 327 327 328 327 327 327 327 328 328 328 329 331 332 334 335 335 334 335 338 337 337 337 335 335 335 335 334 334 336 333 331 330 328 327 326 325 324 323 322 320 319 319 318 318 317
315 321 317 316 316 317 317 319 320 323 322 322 324 324 326 328 327 325 324 326 326 329 327 327 323 323 322 320 316 314 319 321 322 322 323 324 325 325 325 325 326 328 328 327 326 327 327 327 328 328 328 329 331 332 334 334 334 333 335 336 337 337 337 336 336 335 335 334 336 335 332 330 329 328 327 326 325 323 322 320 320 319 318 317 317
313 316 315 314 314 315 316 317 317 319 319 319 320 322 323 323 327 328 326 321 322 325 329 327 325 323 317 317 316 313 311 315 315 320 321 323 323 324 325 325 326 327 328 327 327 327 327 327 327 328 329 329 329 330 332 333 333 333 332 332 333 337 337 338 337 336 336 336 335 336 332 331 330 328 327 326 325 324 322 321 320 319 318 318 317
312 314 318 313 313 314 315 315 316 316 317 316 316 318 320 323 325 327 327 325 324 324 326 328 327 328 322 317 314 312 313 315 316 319 319 320 321 322 323 325 325 326 326 326 328 328 328 327 327 328 328 329 329 329 330 331 332 334 334 332 333 334 335 337 337 337 337 335 334 338 334 332 330 329 327 326 325 324 323 321 321 319 319 319 318
311 312 317 316 313 313 314 315 315 315 315 315 315 316 316 317 319 323 325 327 327 324 324 327 328 328 327 324 321 316 315 318 318 313 319 319 321 322 321 322 324 325 325 325 325 327 328 328 328 328 328 328 329 329 329 330 331 332 333 333 329 331 332 333 337 338 339 337 335 336 336 333 331 329 327 326 325 324 323 322 321 321 320 320 319
312 312 313 315 312 312 313 314 314 315 317 314 314 314 315 316 317 317 319 322 325 323 322 324 325 324 325 325 324 323 323 319 314 315 314 319 321 321 323 323 322 323 323 325 325 326 326 327 328 328 328 328 328 329 329 329 329 330 331 329 327 324 324 324 330 337 338 338 337 336 336 335 333 330 328 326 326 325 324 323 322 322 321 321 320
310 312 313 315 312 310 311 312 313 314 314 312 312 312 313 314 315 315 316 317 319 320 319 321 320 321 323 323 323 324 324 323 322 319 317 314 316 323 322 321 322 324 323 323 325 325 325 325 325 327 328 328 328 328 328 329 329 330 330 325 324 323 322 320 320 321 330 337 339 337 335 335 333 330 328 327 326 325 324 324 323 322 322 322 320
309 311 312 313 314 310 310 311 311 312 314 310 310 311 311 311 312 312 313 313 316 317 317 317 319 318 319 320 323 323 323 323 324 323 319 315 315 317 318 322 323 324 322 323 324 325 325 324 325 325 326 328 328 328 328 329 329 329 328 324 323 322 321 320 316 315 316 326 334 338 338 336 335 332 330 328 326 326 325 324 323 323 323 322 321
308 309 310 310 310 311 310 310 310 312 312 308 308 309 309 309 310 311 311 311 312 313 313 314 315 316 318 318 317 317 318 320 321 319 320 321 314 315 318 318 318 320 322 325 325 325 324 324 324 324 326 327 328 328 329 329 329 329 327 323 323 321 321 320 314 314 316 318 327 333 337 337 336 335 332 330 329 327 325 324 324 324 324 323 321
308 308 308 310 311 313 309 309 310 313 310 308 308 308 308 308 308 309 309 309 310 310 311 311 312 313 314 315 315 315 315 314 314 316 316 315 316 317 318 319 318 318 323 326 325 325 325 325 324 324 325 326 327 328 328 329 328 326 324 322 322 320 320 318 314 313 314 321 324 330 335 336 336 335 334 332 330 329 327 326 326 326 325 324 323
305 307 307 308 309 308 310 307 308 307 307 307 307 307 307 307 307 308 308 308 309 310 309 309 309 310 311 313 314 315 315 315 316 317 316 316 315 314 316 318 319 320 322 324 325 325 325 325 325 325 325 325 326 328 329 329 328 325 325 323 321 319 318 317 314 312 311 315 321 325 332 336 336 336 336 333 332 331 329 328 327 327 326 325 324
306 307 307 306 308 305 305 306 307 308 307 306 306 306 306 306 306 306 306 306 306 307 307 307 307 308 309 310 311 312 312 314 315 315 316 317 316 314 316 319 316 317 320 323 322 325 325 325 325 326 325 326 326 326 327 328 329 326 323 325 321 319 317 317 315 312 311 310 313 320 326 332 336 337 335 335 333 332 330 327 322 319 320 320 322
307 307 307 307 308 309 307 306 307 307 307 306 306 306 306 305 305 305 305 305 306 306 306 306 306 306 308 308 309 310 310 312 312 314 313 312 312 311 311 314 317 316 320 320 322 320 322 324 326 326 326 326 326 326 327 327 329 324 322 325 324 318 317 316 315 312 310 309 309 314 318 323 330 334 335 333 331 328 325 319 316 315 313 313 314
307 308 307 307 306 305 306 306 305 305 305 305 305 304 305 305 306 305 306 304 304 306 305 305 305 305 305 306 308 308 308 310 311 311 311 311 311 311 311 308 310 315 314 318 319 320 320 323 326 327 328 328 328 328 328 326 324 323 322 325 328 318 316 316 315 314 311 309 308 309 311 314 317 321 323 322 322 319 319 318 317 313 313 312 312
306 307 306 307 306 306 307 304 304 304 305 304 304 304 304 304 302 303 304 307 303 303 304 303 304 304 304 305 305 305 306 307 308 309 309 310 310 311 312 311 308 306 312 311 316 317 322 321 323 325 326 327 328 328 326 324 326 321 320 326 326 323 314 314 315 314 313 310 308 308 308 308 309 312 315 317 320 319 320 319 317 313 312 312 311
306 307 307 305 305 306 305 304 304 304 304 304 304 303 303 303 302 302 302 303 305 303 303 303 303 303 303 303 303 304 305 306 306 307 307 308 309 310 312 310 311 308 307 307 310 312 317 320 318 321 324 326 327 328 327 326 323 323 326 327 326 326 318 314 313 313 313 312 309 308 307 308 308 309 314 317 320 319 318 316 315 313 312 312 310
307 308 306 305 305 311 304 304 303 304 304 303 303 302 302 302 302 302 302 302 302 302 304 303 303 304 304 302 302 302 304 304 305 306 306 306 307 307 308 310 312 309 310 307 308 313 315 319 321 322 325 325 325 326 325 326 321 322 324 325 327 327 316 313 312 311 311 311 310 310 307 307 308 309 314 316 317 317 315 313 312 311 310 310 310
308 307 305 304 305 303 304 303 303 303 302 302 302 301 301 301 303 301 301 301 301 301 301 303 304 303 302 301 301 302 303 303 303 304 305 305 306 306 307 308 308 310 310 310 306 312 317 317 320 323 324 325 324 324 324 324 322 322 324 324 324 319 316 316 311 311 310 310 310 309 308 306 305 307 307 313 316 316 316 315 312 311 311 310 309
306 306 305 305 305 303 303 303 302 302 301 300 300 300 300 300 301 301 300 300 301 301 301 301 302 302 301 301 301 301 302 302 302 303 303 304 305 306 306 306 307 308 310 309 308 307 314 315 318 320 323 323 323 322 323 322 322 317 324 324 323 317 321 324 313 311 311 310 309 308 308 307 306 306 306 309 311 313 313 312 312 311 311 310 309
305 305 305 305 304 304 303 304 302 301 300 299 300 300 301 300 300 300 300 300 300 300 301 300 301 301 301 300 300 301 302 301 302 302 303 303 304 304 305 306 306 307 306 306 305 306 310 315 318 318 321 322 322 322 322 322 322 323 319 322 322 322 322 322 323 311 309 309 307 307 308 307 306 306 306 307 309 310 311 311 312 312 309 307 307
305 305 304 304 303 302 302 301 299 299 299 299 299 300 300 299 299 300 299 299 299 299 299 299 300 300 300 299 300 300 301 301 301 301 302 302 302 303 303 303 304 304 307 303 302 303 303 309 313 317 319 321 320 321 321 321 322 322 322 322 322 320 320 320 320 321 309 308 306 306 306 307 306 306 305 305 307 308 310 309 308 307 308 306 306
304 304 304 303 302 301 301 299 299 299 299 299 299 299 298 298 298 298 299 298 298 298 298 298 298 299 299 300 299 300 301 300 301 301 302 301 302 302 302 303 303 303 304 304 302 301 302 304 309 311 316 319 319 319 322 322 321 320 319 321 321 319 319 318 318 318 309 305 305 305 305 305 305 305 304 305 306 306 308 308 307 306 305 305 305
303 303 303 302 301 300 300 299 298 299 298 299 298 298 298 298 298 297 297 297 297 298 298 298 298 298 298 298 299 300 301 300 300 300 301 302 302 302 301 302 302 302 303 303 304 302 302 302 306 308 309 312 315 319 321 320 319 319 319 318 318 318 318 317 316 316 312 305 304 304 305 306 304 304 303 303 305 306 306 306 306 305 305 305 304
302 302 302 301 300 300 300 299 298 298 298 298 297 297 296 297 297 297 297 297 297 298 298 298 300 300 298 299 299 300 300 300 300 300 301 301 300 301 300 301 301 301 302 302 303 303 301 300 301 304 307 307 311 313 319 318 318 317 315 316 317 316 316 315 314 315 309 305 304 304 304 304 303 303 303 304 305 305 305 305 306 306 305 305 304
301 302 301 300 301 299 298 298 298 298 297 297 296 296 296 296 296 296 297 297 297 297 297 298 298 298 299 298 299 300 300 299 298 299 300 300 300 299 299 300 300 301 301 302 303 302 301 300 300 300 304 304 307 310 314 318 317 316 316 316 314 313 314 316 317 312 311 312 312 310 306 304 303 303 304 304 304 304 304 305 305 306 305 305 304
301 301 300 300 300 299 298 298 298 298 297 296 295 294 294 294 295 296 296 296 296 296 297 297 297 298 298 299 299 299 298 298 298 298 298 298 299 299 299 299 299 299 298 298 299 298 298 298 298 300 301 304 306 306 312 316 316 316 314 312 313 314 312 313 314 314 310 312 307 303 306 307 307 308 305 302 303 304 304 304 305 306 305 304 303
301 301 300 299 298 298 298 298 297 297 296 295 293 293 294 295 295 295 295 296 296 295 296 296 297 297 297 298 298 298 298 298 298 298 298 298 298 297 298 298 298 298 297 297 297 297 297 297 297 298 300 301 304 306 309 311 313 312 313 313 311 312 314 313 312 313 313 311 313 312 307 306 305 305 303 303 303 304 304 304 305 305 305 303 302
302 301 300 299 298 297 296 296 296 296 296 295 295 295 295 295 294 294 294 294 294 294 294 295 295 296 296 297 297 297 299 300 299 299 298 298 298 296 297 297 297 297 296 296 296 296 297 297 297 299 299 299 301 302 303 305 306 308 312 312 311 312 311 310 310 309 311 312 313 311 311 311 310 311 312 312 311 307 307 305 308 305 304 302 301
301 300 299 299 298 296 295 295 296 296 295 296 299 295 296 296 293 293 293 293 293 293 294 294 294 295 295 296 298 299 299 299 298 296 295 295 297 298 297 297 296 296 295 295 294 295 295 295 296 297 296 297 299 301 302 304 308 309 308 309 308 310 308 308 308 308 307 309 310 310 312 309 310 309 309 310 312 311 311 310 310 308 305 302 302
300 299 298 297 296 296 296 295 294 294 294 296 293 292 291 293 294 293 292 292 292 292 292 292 292 293 294 295 295 296 298 298 298 295 294 294 294 294 294 295 296 296 295 294 294 294 294 294 295 296 296 296 298 300 301 302 305 305 307 307 308 307 307 307 307 308 305 308 307 307 310 308 309 308 308 308 310 310 310 311 304 303 303 301 301
299 298 297 296 296 296 295 294 294 294 294 296 291 291 292 291 293 294 292 291 292 291 292 292 292 292 292 293 294 295 295 296 296 296 295 294 293 293 292 292 292 293 294 295 294 294 294 293 293 294 295 296 297 300 300 302 303 304 304 305 306 306 306 306 307 307 307 307 306 305 307 304 306 307 307 307 307 306 306 304 302 301 301 300 300
298 297 296 296 295 294 294 293 293 294 293 294 291 292 291 291 291 292 291 291 291 291 291 291 291 291 291 292 292 293 293 295 296 295 295 295 294 293 293 293 293 293 291 291 292 295 295 294 293 293 294 295 295 297 300 301 302 300 303 303 304 305 306 306 307 309 304 305 307 304 305 305 303 303 304 306 305 305 304 299 299 299 299 299 299
297 296 295 296 295 294 293 292 292 292 291 293 291 291 291 290 290 290 291 290 290 290 290 290 291 291 291 291 291 291 292 293 293 293 293 293 294 294 294 294 294 294 293 292 291 291 293 294 294 293 296 297 296 298 301 301 301 300 302 301 302 303 303 304 306 307 304 305 308 304 302 302 300 302 302 302 303 302 303 299 296 297 298 298 297
296 296 295 294 294 294 293 291 291 291 291 292 291 290 290 290 290 290 290 290 290 290 290 290 290 291 291 291 291 291 291 291 292 293 293 293 293 293 293 293 293 294 294 295 295 295 295 296 295 295 296 297 298 299 299 300 301 301 302 302 304 305 303 302 300 300 301 303 306 307 304 303 297 302 301 299 299 299 299 296 296 296 297 296 296
296 296 295 295 294 292 291 290 290 289 289 291 290 290 290 289 290 291 290 289 288 289 289 290 290 290 291 291 290 290 290 291 291 291 291 293 292 292 291 292 292 293 294 294 294 294 295 296 296 296 297 297 295 297 298 299 300 301 302 303 303 301 300 299 299 301 300 303 304 306 305 301 296 302 299 297 298 296 297 298 295 296 296 296 295
296 295 295 294 294 292 291 290 289 288 288 290 289 290 290 289 290 289 289 288 288 288 288 289 289 290 290 290 290 290 290 290 291 290 290 291 291 291 291 291 292 292 292 294 293 292 292 292 292 292 292 292 292 292 292 293 294 296 296 294 294 297 296 295 297 299 300 300 302 304 305 304 296 299 296 296 297 295 295 295 297 295 295 295 295
295 295 295 294 292 292 291 290 288 287 287 289 290 290 290 290 290 289 288 288 287 287 288 288 289 289 290 292 293 291 291 290 290 289 289 290 290 290 289 289 289 290 291 293 294 294 293 292 292 291 291 292 292 292 292 293 293 294 295 292 295 296 294 295 294 297 300 299 301 304 303 304 296 298 295 294 294 294 294 294 295 295 294 294 294
296 295 294 293 291 290 290 290 292 289 287 289 290 289 290 290 291 290 288 287 287 287 287 287 288 288 288 290 291 291 291 291 289 289 289 290 289 289 289 288 287 287 289 291 291 291 292 293 293 294 293 293 294 295 295 293 293 294 296 296 297 295 294 294 295 297 297 300 300 305 302 299 297 299 296 294 293 292 293 294 293 294 294 294 294
Wind_Speed
3 3 4 3 4 4 6 5 4 5 4 4 4 4 3 3 3 3 1 2 2 2 3 2 2 2 2 2 3 3 3 4 4 5 4 4 4 5 8 9 8 9 10 10 9 9 8 8 7 7 7 7 6 6 5 5 5 5 3 4 2 3 5 7 8 8 7 7 8 9 8 7 7 8 8 9 9 8 8 9 9 10 10 11 11
5 3 5 5 4 6 4 6 6 5 5 5 4 4 4 3 3 3 2 2 2 2 3 3 3 2 2 2 3 3 2 3 4 5 5 4 4 4 8 8 9 9 9 10 10 10 9 8 8 6 7 7 7 7 6 5 6 6 5 4 3 2 5 4 9 8 8 7 7 7 7 8 7 8 8 8 8 8 8 9 9 9 9 10 11
3 1 2 5 5 5 5 3 5 5 5 6 5 5 4 4 5 4 4 3 3 1 2 3 3 3 3 3 3 3 4 2 3 3 4 5 5 5 5 8 9 9 9 9 9 9 9 8 8 7 7 7 6 7 6 6 6 6 6 5 3 2 3 2 9 8 7 7 7 8 7 7 7 7 8 7 8 8 8 8 8 8 8 9 10
3 3 1 3 5 6 6 5 5 5 5 6 6 5 5 5 4 2 2 2 2 2 2 3 3 3 3 3 3 3 4 3 3 3 4 4 4 4 4 4 7 9 9 8 8 8 9 9 8 8 7 7 7 6 7 6 6 5 6 5 4 2 1 2 7 9 7 7 7 7 7 7 7 7 8 7 7 7 8 8 8 7 7 8 9
2 5 4 5 7 7 7 6 5 6 6 6 7 6 4 4 4 1 2 0 1 3 1 1 3 2 3 3 3 4 3 3 4 3 5 5 5 4 4 4 4 6 9 8 8 7 7 8 8 7 7 7 7 7 6 6 6 7 6 5 5 4 3 1 5 9 8 8 7 7 7 6 6 7 7 7 7 7 7 7 7 7 6 7 7
2 2 6 7 8 8 8 7 5 4 5 5 6 6 5 5 4 3 2 1 1 3 3 4 3 2 2 3 4 4 3 3 4 4 4 5 4 4 4 3 3 3 4 7 8 7 7 6 8 8 8 8 7 8 6 6 7 7 7 6 6 5 5 4 3 9 9 9 8 7 7 7 6 7 7 7 7 8 7 8 7 7 7 6 6
3 5 6 5 5 6 6 5 4 3 4 4 4 4 5 3 2 3 2 2 1 1 0 3 4 4 4 2 3 3 4 4 3 4 5 5 4 4 4 4 4 3 4 4 4 7 7 7 7 7 8 9 8 8 7 7 7 8 7 7 7 6 7 6 4 8 10 9 9 8 7 6 6 6 7 7 7 7 7 7 7 7 7 6 6
4 3 3 4 4 5 3 0 1 0 1 3 3 3 3 2 2 2 2 1 1 2 0 3 4 5 3 2 3 3 4 4 4 5 5 3 4 5 4 4 4 4 4 4 4 4 7 7 7 6 7 9 9 9 9 7 7 8 7 7 8 8 8 7 7 7 11 10 10 8 8 7 7 7 7 7 7 7 7 6 7 6 6 6 6
2 4 3 3 4 2 0 1 1 2 2 1 2 2 4 1 1 1 2 1 2 3 3 2 3 4 4 3 3 4 5 5 5 5 2 5 5 4 4 5 5 5 4 4 4 4 4 8 8 7 7 9 10 11 10 9 8 8 8 7 8 9 9 9 9 8 10 10 10 10 8 7 7 7 7 7 7 7 7 7 6 6 6 6 6
4 3 1 2 1 1 0 1 1 1 5 4 4 3 5 4 4 3 2 2 3 2 3 3 3 4 4 5 4 4 5 5 5 3 4 6 5 6 6 4 4 5 4 5 4 4 4 5 8 9 8 9 10 11 12 11 10 8 9 8 8 10 10 9 10 10 10 11 10 10 10 9 8 8 8 8 8 8 8 7 7 7 6 5 5
6 5 4 4 4 2 2 2 1 1 2 4 5 5 6 6 4 2 2 3 3 3 3 2 3 4 4 5 4 6 5 5 4 4 5 6 6 5 3 5 4 4 5 5 4 4 5 4 4 4 6 10 11 11 13 12 12 10 10 9 8 10 10 9 11 12 10 12 11 11 11 11 10 9 9 8 8 8 8 8 8 7 7 6 6
5 4 4 4 3 4 3 1 2 2 1 2 3 2 3 1 2 3 2 3 3 3 2 2 2 2 4 5 4 5 6 5 5 6 5 6 7 4 5 3 4 4 5 5 4 5 5 4 4 5 5 8 12 12 13 11 10 11 12 11 10 10 11 11 11 12 13 12 12 13 13 13 12 11 10 10 9 9 9 9 8 7 7 7 6
3 3 3 3 3 4 4 3 2 2 2 3 3 3 1 2 2 1 3 4 3 1 1 1 0 3 2 3 6 6 5 4 6 6 6 6 4 5 4 4 5 5 5 4 5 5 5 5 5 4 5 4 7 12 13 12 12 11 13 13 13 10 10 12 13 13 14 12 14 14 15 15 14 13 12 12 11 10 10 9 8 8 8 8 7
2 3 4 4 5 6 5 4 3 3 3 2 1 3 1 3 3 3 1 2 1 2 1 1 1 0 2 4 4 6 4 3 4 5 5 5 5 5 5 6 6 6 4 4 4 5 5 5 5 5 5 5 5 5 7 9 11 14 13 14 15 14 11 12 13 14 15 12 16 14 14 15 14 14 14 13 13 12 11 10 9 8 8 8 7
2 3 5 4 5 5 5 4 5 4 5 6 5 5 3 0 1 1 2 1 1 1 1 1 1 2 2 2 3 4 5 4 2 5 6 6 6 6 6 6 7 5 4 4 4 5 5 5 5 5 5 6 6 6 6 8 10 13 14 14 15 16 15 13 13 14 15 14 14 16 15 15 15 14 14 14 14 14 12 11 10 9 9 8 8
4 4 4 5 5 5 4 5 5 5 6 6 6 6 4 4 2 0 2 3 1 0 1 4 1 1 1 3 1 2 5 2 6 7 4 5 5 6 5 6 5 4 3 5 5 5 5 4 6 6 6 6 6 6 6 6 11 13 14 14 14 14 16 17 15 14 15 16 14 15 15 16 15 15 15 14 14 14 14 13 12 11 10 9 8
4 4 5 5 5 5 6 5 5 5 5 6 6 5 4 4 5 3 2 1 2 1 1 3 6 5 3 2 1 0 3 1 5 6 5 4 3 4 3 4 5 4 4 5 4 4 4 5 5 5 6 6 6 7 6 7 8 8 11 14 16 15 14 16 17 17 15 14 15 16 18 17 16 15 15 15 14 14 14 15 14 13 12 11 10
4 4 4 5 6 6 6 6 5 6 6 6 5 6 7 7 6 4 5 4 2 3 3 1 3 1 2 1 1 1 0 1 2 4 4 2 3 2 2 3 3 3 4 4 4 5 3 4 5 6 6 6 6 7 7 7 7 7 7 10 16 16 16 16 16 17 18 16 14 13 17 18 17 17 16 16 16 15 15 15 15 15 14 13 11
4 5 5 5 6 6 7 6 6 6 5 6 7 6 6 6 6 7 6 4 4 5 4 3 3 3 1 0 1 1 1 1 3 2 5 4 3 3 4 2 1 4 4 5 5 5 6 5 6 6 6 6 6 6 6 7 9 10 12 14 14 16 16 16 16 18 19 18 17 16 15 20 19 18 18 18 17 17 16 16 16 16 16 14 13
4 5 5 5 6 6 6 7 7 6 6 7 6 5 6 6 6 6 6 6 5 4 4 4 4 2 3 1 1 2 3 5 5 4 4 5 7 4 2 3 3 2 3 4 3 4 5 4 5 5 5 6 6 6 7 7 7 8 9 15 16 15 16 16 17 17 18 18 18 17 15 17 20 19 19 19 20 19 18 18 17 17 17 16 15
4 4 4 5 6 6 6 7 7 6 6 6 6 7 8 8 8 8 8 7 6 5 4 5 4 4 3 4 3 2 2 5 6 7 4 4 4 3 7 4 3 4 1 2 3 4 5 5 5 5 5 5 6 7 7 7 7 7 11 15 16 17 16 16 17 17 17 17 16 17 17 17 21 21 20 20 21 20 20 20 19 18 18 17 16
4 4 4 5 6 6 6 7 6 6 6 7 6 8 7 7 7 7 7 8 6 6 6 5 5 5 5 4 4 3 4 3 3 4 3 5 6 5 5 7 8 3 2 5 4 3 3 4 4 5 5 5 6 6 7 8 7 7 11 16 16 16 17 17 17 17 17 17 14 16 17 17 18 23 23 22 22 20 19 19 19 19 18 18 18
3 3 3 4 5 6 6 5 5 6 7 7 7 7 6 6 6 7 7 7 6 6 6 6 5 6 7 6 6 5 4 3 3 2 3 3 4 4 4 4 5 9 4 4 4 4 4 4 5 5 5 5 5 5 6 7 10 11 15 15 16 15 16 17 17 16 17 17 17 16 17 16 17 20 22 23 21 20 20 20 20 20 19 19 18
3 4 2 3 5 5 5 5 6 6 7 6 6 6 6 6 6 6 6 6 6 6 6 6 6 6 6 5 5 4 4 4 4 4 3 4 4 6 5 5 6 4 3 5 6 6 4 4 4 4 5 5 5 5 6 6 8 14 12 14 14 16 18 18 17 17 16 17 18 17 16 17 18 20 21 23 24 23 21 21 20 20 20 19 19
3 4 3 3 5 5 5 6 6 5 6 6 5 6 6 7 7 7 6 7 6 6 6 6 6 5 4 4 4 4 4 4 4 4 4 4 4 5 5 5 6 7 5 4 4 3 5 5 4 4 4 5 4 5 6 6 6 9 14 10 15 16 17 17 17 17 17 17 17 17 17 16 18 19 20 25 25 24 23 21 18 16 16 17 18
6 5 5 5 3 4 5 6 5 5 6 6 6 5 6 7 6 6 6 4 5 6 5 5 5 5 4 5 5 4 4 4 4 4 4 4 4 5 6 5 6 7 4 3 3 3 3 3 3 4 4 4 4 4 2 5 6 11 13 10 11 16 15 16 16 16 17 17 17 17 17 17 16 18 19 21 22 21 20 18 16 15 15 15 15
7 5 5 5 5 5 5 6 5 5 5 6 6 6 6 6 6 6 5 4 5 5 4 5 5 5 5 4 4 4 4 4 4 4 4 3 3 4 5 7 6 5 6 3 3 6 9 3 4 4 5 5 5 4 6 6 6 12 12 9 6 12 15 16 16 17 17 18 17 18 18 17 16 16 15 19 20 20 19 19 19 17 16 15 15
4 5 5 6 6 5 5 6 5 5 5 6 6 6 6 6 5 5 5 2 5 5 4 4 4 4 4 3 4 4 4 4 4 4 4 4 4 3 4 4 5 8 4 7 5 6 5 4 3 5 5 5 5 5 6 6 6 9 9 6 6 7 15 16 17 18 18 18 18 17 18 17 17 17 15 19 22 21 20 20 20 19 18 17 15
6 5 6 4 5 6 6 5 5 5 6 6 6 6 6 5 5 5 5 3 4 4 3 4 3 3 3 4 3 3 3 3 4 4 4 4 4 4 3 4 4 5 6 5 5 6 4 3 4 3 4 5 5 3 3 3 5 4 4 5 6 5 10 16 17 17 17 18 18 18 19 19 18 19 18 19 23 22 21 20 21 20 19 18 16
6 5 5 6 5 6 6 5 5 5 6 5 6 5 6 5 5 5 4 3 4 3 3 3 3 3 2 3 3 3 3 3 4 4 4 4 4 4 4 4 4 5 4 7 8 5 6 4 6 5 3 4 2 3 2 4 5 5 4 5 5 6 11 15 17 19 18 18 18 20 20 20 20 20 20 19 21 22 22 22 22 21 21 20 18
5 5 5 5 5 5 6 6 5 6 6 6 6 5 5 5 5 5 4 4 4 4 3 2 2 2 4 5 4 4 4 4 4 4 4 4 4 4 4 4 5 5 6 5 8 5 4 4 3 3 3 5 5 4 5 5 6 5 5 4 5 7 10 10 14 15 16 18 19 20 17 14 15 18 10 13 18 22 24 23 22 22 21 21 19
5 5 6 6 6 6 5 6 6 6 6 6 5 6 5 5 5 5 3 4 4 4 4 3 3 3 3 4 4 4 4 4 4 4 4 4 4 4 4 4 4 5 5 6 7 11 5 6 6 6 6 5 6 7 7 6 5 5 5 5 5 6 6 6 10 14 15 17 18 14 18 20 20 19 15 18 19 19 21 22 22 21 21 21 20
6 6 6 6 6 7 7 6 6 6 6 6 4 5 6 6 4 4 3 3 3 2 1 4 4 4 5 5 4 5 4 4 4 4 4 5 5 4 4 4 4 4 5 5 7 9 8 5 5 4 5 5 5 4 6 6 6 6 5 6 6 5 5 5 5 8 13 15 13 15 20 19 19 18 17 19 18 21 20 21 22 22 21 21 20
7 7 7 6 6 7 6 6 6 6 6 6 5 6 6 5 4 2 3 3 2 2 1 3 4 3 4 5 6 6 4 5 4 4 4 4 4 4 4 4 4 4 3 5 6 7 11 7 7 6 6 3 5 2 5 7 7 4 6 7 6 4 5 3 4 5 9 12 12 15 16 16 17 17 17 18 20 20 22 22 21 21 21 21 21
6 7 8 8 7 6 6 6 6 6 5 5 5 6 5 4 2 2 1 2 1 1 2 3 3 3 4 4 5 5 4 4 4 5 4 4 4 4 5 4 4 4 4 5 6 8 9 10 6 7 5 3 4 6 5 4 4 4 6 7 6 5 4 3 4 3 5 8 10 12 13 14 15 15 16 16 18 20 21 21 21 21 21 21 21
8 5 7 9 8 7 7 6 6 6 5 5 5 5 4 2 1 1 1 1 1 1 2 3 4 3 4 4 4 5 5 6 5 4 4 4 4 5 5 5 5 6 5 5 6 7 7 10 9 7 7 8 7 7 5 4 5 5 4 5 5 5 5 4 3 3 3 7 9 11 13 13 14 15 14 12 15 16 20 21 21 21 21 21 21
6 7 6 6 7 7 7 7 7 6 6 5 4 3 2 1 0 1 2 2 2 3 3 4 3 4 4 4 5 5 5 5 5 4 3 5 7 7 8 8 8 8 6 6 6 6 8 9 10 7 6 8 7 9 6 5 3 3 3 4 5 5 5 4 4 3 3 6 8 11 12 13 13 13 12 13 16 19 20 20 20 22 22 21 22
7 7 8 6 7 7 7 7 7 6 6 5 4 2 2 3 2 1 2 3 4 4 4 5 5 5 5 5 5 5 4 4 5 5 5 7 6 8 9 8 8 8 8 6 5 7 8 10 10 12 7 8 8 7 8 5 4 3 5 4 3 4 5 7 5 1 1 1 1 2 5 7 10 10 11 13 15 15 17 18 20 21 21 23 22
9 7 6 7 5 7 7 7 7 6 6 5 4 2 3 3 3 4 5 5 5 5 5 6 6 6 6 6 6 6 6 6 6 5 5 5 5 6 7 8 9 10 10 9 10 10 10 10 11 11 10 7 7 10 7 6 5 5 6 8 8 2 3 4 7 3 1 2 2 3 3 5 6 7 9 11 12 12 13 16 18 20 22 22 22
9 8 8 7 5 6 7 6 5 6 6 5 4 3 3 3 4 4 4 4 5 5 6 6 6 6 7 7 7 7 7 7 6 6 6 5 4 6 5 6 7 8 8 8 8 9 10 10 10 11 9 9 7 7 8 8 8 4 3 4 5 6 6 2 3 5 3 2 5 3 1 3 4 5 6 9 11 12 13 14 17 17 19 20 23
8 8 7 8 8 6 5 6 6 5 5 5 4 4 4 3 2 3 3 4 4 5 5 6 6 6 7 7 7 7 8 10 12 10 10 8 6 6 5 5 6 6 7 8 9 10 9 10 10 9 10 9 7 7 7 7 8 9 3 3 3 4 3 4 5 4 4 6 5 4 4 2 3 3 3 4 6 9 10 13 13 17 19 19 22
8 8 8 7 8 8 7 6 5 5 5 4 4 6 3 2 1 1 2 3 4 5 5 6 6 6 7 7 7 12 13 14 13 13 12 12 12 9 8 6 6 7 7 8 9 9 10 11 10 10 11 11 8 7 8 8 6 5 6 4 5 4 2 3 4 4 3 3 4 6 5 1 3 4 4 5 5 6 6 7 9 11 16 19 18
9 9 9 8 7 7 8 8 7 5 4 3 5 4 3 3 1 1 2 4 4 4 5 5 6 6 6 7 7 8 10 11 11 12 12 13 13 14 15 14 12 9 7 8 8 8 10 11 10 10 10 12 11 8 8 8 8 8 6 5 5 5 5 3 6 2 1 3 2 3 5 1 3 5 4 5 5 4 5 7 8 11 13 16 18
9 9 9 8 8 7 6 7 7 6 5 5 6 4 3 3 2 2 3 3 4 5 5 6 6 6 7 6 6 6 7 8 9 10 11 13 14 14 15 15 15 16 14 11 10 8 8 10 12 12 11 12 11 9 8 5 7 6 6 5 5 7 7 6 4 4 1 5 4 2 5 1 3 5 5 5 3 2 2 2 4 9 10 12 13
9 9 8 8 8 7 8 8 7 6 6 7 7 6 5 5 4 3 4 4 4 5 5 6 6 6 6 6 6 6 6 11 12 10 9 9 12 15 15 16 16 16 15 16 15 12 8 10 11 13 13 12 13 12 7 8 6 10 7 8 6 4 5 7 6 5 2 5 3 3 5 3 4 3 5 3 2 2 2 3 7 9 10 11 13
9 9 8 8 7 7 7 7 7 6 6 7 8 7 6 6 5 3 4 5 5 6 6 7 6 7 7 7 7 8 7 8 8 9 9 10 9 10 10 9 9 11 13 15 16 17 15 13 11 13 11 11 14 11 8 6 8 9 8 9 8 9 8 7 5 5 3 5 6 3 3 3 4 4 5 1 2 2 2 4 8 9 10 12 13
11 10 10 9 8 7 6 5 6 6 5 8 9 8 7 6 6 4 4 4 5 6 6 7 7 7 8 7 7 9 10 8 8 10 10 10 10 10 10 10 10 9 10 10 11 10 10 10 10 12 11 11 13 13 13 11 11 11 10 11 9 8 5 4 4 4 3 4 4 3 7 1 3 3 2 3 3 3 2 3 8 10 11 13 14
8 9 6 7 8 6 5 5 5 6 6 9 9 9 8 7 6 4 4 5 6 7 7 7 7 7 7 7 7 8 9 9 12 15 14 12 12 12 13 12 12 12 10 10 13 14 13 11 10 11 10 10 12 12 10 8 6 7 8 7 7 8 8 9 10 4 6 4 7 6 6 4 3 4 2 2 3 2 2 2 3 8 10 11 13
11 10 10 8 8 8 8 6 6 6 6 8 10 10 8 8 5 5 5 5 6 7 8 8 7 8 7 8 8 8 9 9 12 14 15 15 13 12 12 13 11 10 11 8 12 16 16 17 19 19 19 18 19 20 20 21 16 12 12 12 11 6 7 10 9 8 10 4 6 8 5 7 3 3 3 2 2 3 2 3 3 6 10 12 14
10 10 8 7 6 7 9 9 8 7 7 7 10 10 9 9 7 6 5 5 7 7 8 7 7 7 8 14 14 11 9 10 13 14 15 15 13 12 13 15 16 16 14 9 8 8 14 18 19 19 19 19 20 20 21 21 21 17 13 13 9 8 12 9 12 10 7 5 6 8 5 7 4 3 3 2 1 2 3 3 4 5 7 8 12
10 9 8 8 7 6 6 8 8 7 6 7 9 10 10 10 7 5 5 5 6 8 7 7 7 7 7 8 13 14 13 15 17 16 16 15 13 12 15 16 17 18 15 12 13 12 12 11 11 11 12 16 16 16 16 20 21 18 17 14 10 11 15 13 13 9 10 9 6 11 9 3 5 4 4 3 1 2 2 3 4 5 4 4 6
Wind_Direction
206 182 179 198 209 240 183 177 168 162 148 155 147 158 181 193 225 222 142 112 112 105 118 124 142 200 143 152 233 240 219 204 199 194 199 198 202 218 220 201 197 203 198 193 190 188 190 190 189 184 183 186 182 182 189 194 168 188 196 181 174 101 50 130 117 117 115 106 99 99 95 93 93 96 95 93 91 88 84 81 77 78 79 78 76
178 157 165 202 216 250 224 180 173 164 158 157 153 153 181 209 239 230 156 151 164 168 145 145 155 191 195 174 194 240 225 231 219 209 196 194 203 212 229 212 206 207 209 198 198 194 194 193 193 199 196 192 190 191 197 205 182 188 200 208 167 85 62 123 124 123 120 118 115 110 114 109 106 104 101 96 92 88 85 86 85 84 85 86 83
110 91 167 213 211 226 245 208 175 170 168 160 147 162 177 208 207 204 183 185 200 147 161 178 172 178 208 197 201 203 239 223 258 255 219 208 198 203 224 227 211 212 211 203 204 206 200 198 198 204 199 199 201 197 202 210 202 199 200 205 170 99 70 71 136 128 126 126 122 114 112 115 110 105 103 104 102 97 93 89 89 88 87 87 88
102 129 76 271 217 215 228 226 193 169 172 155 155 162 180 209 208 192 172 170 207 182 167 187 210 185 188 216 200 198 217 219 231 241 254 237 215 208 208 236 226 216 213 206 204 213 210 210 207 204 204 199 201 197 199 208 211 208 212 214 161 158 185 8 155 132 135 135 127 125 126 122 121 113 109 105 104 104 103 100 98 97 92 93 95
110 152 155 210 230 213 215 221 210 173 169 164 158 165 170 179 216 166 102 80 350 313 333 178 237 199 171 199 197 220 198 210 222 222 227 233 221 206 202 223 252 232 222 215 212 210 221 226 223 214 205 201 203 201 200 206 211 213 218 229 196 203 230 281 174 139 147 140 136 135 134 129 121 120 118 112 108 105 104 105 100 95 93 93 91
147 168 192 192 220 213 206 207 215 184 156 149 159 158 164 174 183 163 148 108 16 340 343 313 298 274 212 176 199 212 189 206 221 221 219 228 223 203 202 204 227 243 238 231 222 214 220 231 237 222 208 211 216 206 215 206 201 216 223 226 222 220 239 248 210 155 153 149 145 144 142 137 134 129 123 123 118 115 115 113 111 106 98 91 87
151 175 199 202 223 238 208 197 202 178 153 152 154 153 141 141 119 179 125 89 74 45 147 289 296 295 281 215 210 184 197 210 209 223 217 222 212 220 199 199 205 217 231 234 240 226 215 224 232 233 215 220 226 222 226 218 210 214 218 220 216 213 235 249 260 181 160 159 155 152 151 147 143 139 135 130 127 123 122 121 117 117 113 106 95
142 133 179 205 216 241 252 6 35 13 170 114 105 117 90 86 98 103 108 27 39 329 354 276 288 286 278 209 239 207 211 213 217 226 223 195 217 216 210 205 198 203 216 219 216 231 224 216 225 231 212 218 229 231 233 232 222 219 223 219 221 207 225 241 252 211 170 169 163 160 158 157 156 154 147 142 140 134 131 128 120 120 120 116 109
139 172 193 216 218 241 233 61 321 341 324 317 173 104 46 288 96 104 111 66 354 297 313 302 291 278 288 254 207 208 218 209 219 227 210 216 217 219 216 215 209 212 208 204 210 216 224 222 219 222 218 213 227 232 236 238 240 219 223 222 220 219 218 240 244 241 188 175 174 165 162 166 167 165 158 156 148 142 140 137 132 124 120 119 115
14 13 115 207 240 204 53 92 100 131 290 264 248 124 205 212 189 152 131 197 233 254 290 305 304 297 315 292 252 210 226 221 217 211 215 230 220 218 215 211 206 211 204 201 209 207 210 223 221 217 217 218 223 227 232 236 240 230 230 223 219 223 222 234 250 255 221 194 184 170 165 166 175 176 167 163 160 152 148 144 140 140 137 129 123
37 34 32 24 29 13 25 50 86 66 91 11 330 259 184 223 214 169 171 219 239 237 231 254 297 317 313 292 267 241 226 221 218 211 221 235 232 224 192 211 205 208 207 205 202 202 204 204 207 204 213 217 221 225 228 232 235 238 235 231 217 222 225 232 245 255 242 208 188 181 168 168 172 186 178 176 168 164 158 153 152 149 145 142 135
37 49 48 40 37 54 84 64 32 44 41 37 260 33 352 239 179 236 212 228 225 238 219 231 272 287 307 301 281 266 242 208 196 214 225 236 239 216 219 204 201 212 212 212 201 203 200 197 200 209 208 216 219 223 226 226 231 240 237 239 239 226 224 232 231 243 251 216 203 186 173 168 173 186 188 180 176 172 167 159 164 157 154 150 146
58 48 45 49 62 37 41 44 113 128 158 252 319 21 158 200 176 174 221 201 228 153 20 172 321 342 357 317 305 280 269 237 204 200 216 229 224 229 229 209 213 211 215 199 206 205 203 198 200 202 211 212 219 223 224 225 226 230 235 237 245 246 233 233 232 233 244 223 208 197 176 172 176 185 188 185 179 176 173 168 169 167 163 160 155
76 82 63 64 65 53 43 24 12 91 107 162 124 6 300 179 202 169 230 208 202 105 51 50 39 116 27 340 316 310 247 260 253 227 216 217 211 216 218 221 222 220 205 193 208 207 209 204 197 201 205 210 213 210 218 225 228 227 229 233 238 246 246 240 233 231 236 228 210 201 180 176 178 187 190 185 180 178 177 172 173 173 170 168 162
54 79 89 74 80 77 58 38 30 31 68 59 37 35 346 38 149 124 115 69 356 305 170 33 89 93 95 42 328 345 337 335 290 265 228 213 195 213 213 216 225 217 203 196 204 211 211 204 204 203 205 209 210 212 215 221 223 226 228 229 234 239 248 250 245 241 234 238 210 207 185 181 181 186 196 189 181 179 176 173 174 177 180 173 171
40 60 81 80 83 88 85 64 51 43 74 71 54 54 30 25 344 87 108 122 180 163 199 161 116 105 106 188 186 71 316 333 333 302 266 243 208 221 213 221 223 220 190 210 212 209 213 205 209 208 211 212 211 213 218 217 226 226 226 228 230 235 241 247 254 249 238 238 232 206 193 183 187 191 199 196 186 181 176 174 176 180 181 180 176
32 38 70 78 77 83 83 78 68 61 70 69 61 55 35 26 27 53 81 118 126 140 193 166 170 213 141 114 58 126 216 326 332 294 343 322 274 269 247 242 227 217 217 230 224 215 215 213 216 215 216 214 214 214 216 221 225 222 226 228 229 229 233 241 247 254 257 247 239 207 191 184 195 198 201 200 192 186 179 176 178 178 181 182 182
19 36 55 74 67 67 73 69 65 59 63 78 76 57 38 41 24 39 52 34 66 99 73 92 198 127 57 75 136 161 314 322 41 307 309 286 320 329 246 237 241 227 221 231 218 224 216 231 218 225 218 217 217 217 214 219 220 218 220 226 224 225 228 232 239 247 249 251 254 228 198 193 187 195 200 200 197 190 186 179 179 177 181 182 182
29 47 56 65 74 63 67 67 64 57 55 61 54 50 44 35 28 40 29 30 41 80 62 20 76 42 9 287 68 106 144 17 259 315 314 312 318 17 345 332 252 229 232 222 214 214 215 217 220 223 221 216 219 220 219 223 223 228 226 231 226 223 225 226 232 240 246 247 245 248 210 200 192 190 197 201 196 190 188 183 182 180 180 180 181
51 48 55 68 76 68 69 72 67 56 60 59 59 48 53 35 39 40 42 37 34 59 57 32 60 30 331 82 208 274 257 238 247 248 277 286 303 326 161 357 344 279 257 260 234 223 230 229 233 229 224 223 217 216 221 223 223 225 231 231 230 227 225 224 226 233 242 246 246 242 235 199 203 191 191 197 199 189 186 185 186 184 180 178 180
42 64 53 67 73 83 79 77 75 69 70 67 58 55 52 49 40 38 39 40 36 37 49 35 36 46 27 12 34 84 205 219 227 228 236 271 283 284 319 303 280 280 281 260 253 226 212 217 218 224 222 218 214 215 217 220 220 221 231 230 228 228 227 226 224 226 232 239 241 240 239 208 199 195 194 196 199 191 187 186 187 188 183 178 178
41 56 68 71 80 82 81 82 86 86 80 81 75 62 54 54 49 49 46 50 37 46 51 40 37 27 34 35 48 12 22 37 35 5 299 255 259 291 299 314 316 295 288 287 249 237 230 219 225 221 220 215 210 211 211 216 215 216 226 228 228 228 227 228 225 223 225 231 234 236 234 230 210 198 195 201 200 196 191 190 188 189 187 181 176
77 60 76 92 88 89 94 91 85 85 83 80 75 80 72 68 60 57 52 53 45 48 48 43 43 38 33 37 41 41 39 39 2 345 325 319 320 308 314 301 291 302 281 267 277 255 232 229 232 227 224 221 216 209 211 217 221 222 226 225 224 225 229 231 228 224 225 227 231 232 231 229 205 203 204 198 199 203 203 199 194 191 190 185 178
89 112 96 94 104 95 95 95 92 90 85 87 82 80 81 76 66 62 56 50 50 54 51 44 37 41 35 25 30 24 33 24 359 340 339 323 307 300 300 311 294 261 285 294 276 276 266 247 235 238 227 228 223 213 220 224 228 227 226 229 223 222 223 226 225 224 223 226 229 230 230 225 221 208 201 201 199 202 204 206 202 198 192 187 182
178 152 179 162 135 132 135 117 106 104 112 97 92 85 82 78 74 70 63 52 51 58 58 48 47 44 23 19 23 26 20 2 355 356 350 333 325 310 312 310 290 294 295 288 286 284 252 251 257 235 236 233 237 215 221 221 224 230 222 228 220 221 224 225 224 223 223 224 228 232 230 225 223 221 207 199 199 201 202 205 205 204 199 190 185
177 192 185 176 156 136 118 108 108 111 106 103 99 98 93 88 88 84 79 77 68 67 66 60 52 41 33 34 25 17 1 355 357 3 4 355 350 341 327 311 291 291 278 270 267 294 287 271 237 244 241 240 240 218 232 251 242 241 226 223 217 217 221 223 224 224 225 225 225 230 233 227 222 221 214 203 204 197 192 194 198 199 203 196 190
187 189 169 161 153 130 128 118 114 106 101 92 89 83 82 78 78 85 84 86 81 75 64 62 51 39 41 35 19 11 350 345 346 352 353 345 332 329 329 322 306 297 306 278 287 251 271 273 231 239 243 246 236 216 204 206 248 248 234 221 221 205 214 219 221 223 225 227 226 227 233 231 222 218 210 192 199 192 191 185 190 193 198 198 196
173 161 178 159 155 140 124 124 128 121 104 106 104 94 90 88 76 74 69 55 78 72 69 63 49 39 42 33 30 357 334 335 338 335 327 318 311 312 311 318 311 299 297 293 289 278 255 266 283 248 247 246 245 226 246 240 231 240 231 225 218 205 204 212 218 223 222 223 225 226 228 232 228 218 208 193 191 190 191 187 188 189 191 194 197
172 174 164 166 154 144 133 129 119 110 97 96 97 94 90 83 80 79 78 60 82 81 69 65 62 31 31 23 5 326 317 316 324 318 314 310 309 300 304 298 302 290 295 279 266 278 289 247 277 295 251 251 257 274 280 263 264 255 223 217 219 219 195 205 217 228 225 222 223 224 225 225 225 224 212 196 189 188 188 187 187 188 188 191 193
172 170 159 154 152 142 131 125 118 105 111 105 96 89 81 66 63 66 82 87 68 62 51 51 20 11 25 350 352 321 304 312 302 301 304 305 302 307 301 297 285 280 274 282 283 258 284 270 241 274 320 284 274 277 225 254 260 262 256 233 223 220 200 202 209 220 222 219 221 228 226 223 224 225 220 197 189 190 189 189 190 189 187 189 191
158 151 149 145 140 131 128 124 116 116 111 105 100 88 89 84 64 69 49 62 66 42 6 21 344 10 351 334 323 311 301 303 301 298 298 298 296 300 304 300 299 286 283 280 283 260 244 289 291 261 259 290 290 291 279 267 278 273 269 246 235 232 226 216 216 221 221 222 221 223 230 233 233 236 211 222 208 193 192 192 191 189 189 188 188
176 160 154 151 147 137 136 132 130 126 108 98 105 108 100 92 99 81 86 88 73 41 346 336 335 343 330 318 303 293 293 289 294 293 291 293 289 289 294 296 295 294 294 289 267 278 266 281 290 304 311 305 308 297 284 280 269 264 274 262 247 242 232 234 224 227 229 228 228 216 220 220 222 222 201 209 209 202 198 194 193 191 189 187 187
161 157 154 153 146 143 142 146 140 130 112 115 126 122 97 97 98 110 114 102 73 60 40 331 326 329 328 321 296 279 282 283 280 285 283 282 289 285 281 288 287 306 313 305 289 288 289 267 273 294 309 313 302 263 282 288 294 293 288 277 283 260 243 250 259 230 233 238 230 213 224 224 222 220 204 206 205 205 199 199 197 193 188 185 186
164 158 152 146 143 141 138 131 113 108 116 126 137 102 97 93 86 110 93 88 89 32 88 327 316 307 315 318 309 297 279 267 275 277 274 282 285 286 282 277 280 285 300 304 296 293 292 303 301 306 305 263 283 251 283 296 298 303 299 291 277 278 279 259 246 251 235 240 233 227 227 226 226 222 212 203 205 201 204 201 199 193 189 186 185
163 155 150 147 144 138 124 121 112 109 117 117 103 97 103 111 109 104 124 112 116 354 0 293 294 297 307 304 301 299 290 281 266 259 255 259 264 273 276 272 271 270 272 277 287 288 290 294 302 296 295 329 296 303 299 286 284 289 297 291 295 292 274 278 268 267 251 241 238 236 237 229 234 229 223 214 209 205 207 202 200 197 191 186 185
153 155 146 144 139 132 123 115 112 119 120 109 93 96 121 131 142 195 207 129 178 220 262 284 288 294 287 291 281 286 285 278 273 262 255 247 252 265 269 255 266 278 264 262 263 281 293 295 300 308 319 317 305 293 281 274 282 294 276 292 290 282 293 283 262 270 239 226 227 231 232 230 228 235 233 214 218 213 214 208 199 196 194 188 185
151 142 142 137 132 131 130 133 130 130 132 119 106 103 92 114 144 214 268 277 271 283 270 271 277 279 277 269 271 272 275 277 292 283 272 280 298 302 302 298 294 291 274 270 273 283 290 292 296 295 304 299 297 292 284 287 281 261 260 263 288 296 294 275 274 242 249 219 219 221 228 233 232 231 232 218 213 215 213 211 202 198 194 188 188
151 150 146 151 139 137 132 138 137 133 125 117 118 124 62 43 48 351 298 294 304 301 296 285 279 273 268 267 266 262 265 286 296 299 300 298 298 295 298 298 300 301 296 285 269 286 290 290 292 296 297 299 299 289 288 261 264 281 287 268 264 278 296 298 268 272 24 343 298 216 235 242 241 237 227 228 225 222 220 213 207 201 194 192 185
152 149 146 137 136 134 139 134 136 136 125 108 100 84 45 25 10 1 348 341 328 316 293 288 281 276 269 265 267 267 269 268 279 282 285 285 289 294 297 298 298 295 293 291 292 291 288 287 286 282 288 282 286 294 294 288 263 242 264 290 294 245 248 261 294 286 225 270 213 195 214 216 220 225 224 232 237 230 222 220 215 208 201 193 188
151 149 147 143 141 131 138 134 129 119 116 110 93 88 89 55 32 1 346 326 309 304 297 289 286 281 277 275 269 266 263 259 261 267 259 274 270 277 275 280 285 285 284 284 281 281 281 278 276 284 282 286 280 276 293 292 279 272 235 232 271 287 290 273 243 289 295 285 292 293 222 205 213 217 215 218 224 227 225 220 218 218 210 204 197
148 148 139 133 129 116 107 113 113 113 113 115 135 131 96 65 72 358 316 302 296 289 290 287 285 280 277 273 273 267 263 269 269 272 273 273 279 277 268 266 272 272 276 280 282 281 279 276 276 275 280 281 279 286 286 281 274 274 276 211 231 255 269 285 275 239 253 273 280 287 288 275 261 250 235 236 225 218 225 222 223 214 214 208 205
144 132 129 133 133 135 125 114 115 112 117 143 130 124 133 138 160 222 262 280 289 292 295 300 293 286 279 274 272 272 275 276 275 274 274 272 267 263 272 272 269 270 270 275 276 278 279 278 277 277 277 275 275 269 274 278 295 318 312 292 272 272 264 261 270 243 194 216 262 282 280 146 244 251 225 237 242 206 216 207 217 213 214 213 215
133 134 129 124 126 133 134 135 132 135 148 151 139 134 139 160 165 204 244 280 282 279 278 279 281 283 281 274 272 273 275 279 278 274 272 270 266 265 263 261 260 261 272 265 263 266 272 272 274 272 270 276 276 274 272 281 281 284 288 296 283 276 256 244 274 326 156 203 230 262 276 163 221 249 237 235 241 225 219 222 213 215 222 219 217
129 128 128 135 138 136 134 137 142 157 162 167 161 170 201 227 224 218 236 245 261 266 265 267 269 278 283 285 281 280 277 273 274 273 267 264 263 262 261 260 259 254 247 251 267 267 261 268 267 264 268 267 276 271 271 269 278 286 286 288 270 266 268 256 241 248 220 183 180 222 269 194 226 240 249 248 225 189 215 234 202 198 204 213 216
123 123 131 131 136 141 146 152 159 170 168 180 180 196 215 230 240 220 238 235 245 256 263 264 267 273 282 285 288 281 277 275 281 279 276 274 268 266 265 265 261 255 250 246 244 250 262 258 261 263 257 267 272 271 269 273 278 279 278 271 268 251 254 267 255 252 216 202 170 218 252 230 197 227 239 240 156 187 142 147 170 176 182 187 190
122 123 126 136 145 160 165 163 169 172 174 191 198 205 217 227 241 228 231 242 249 253 260 266 270 275 278 285 289 290 284 282 278 277 275 273 274 272 268 261 259 257 253 246 243 244 246 255 258 261 262 256 262 269 266 255 258 263 268 268 276 279 270 265 278 272 304 184 191 184 253 224 197 206 232 200 141 147 182 163 165 168 168 174 172
136 145 148 154 167 171 172 171 159 176 196 202 204 212 218 230 248 241 241 244 254 259 259 262 264 266 272 276 280 287 290 287 281 281 283 281 278 275 270 264 258 255 253 251 251 249 249 247 252 258 263 260 263 266 270 269 267 268 270 275 274 269 275 271 246 217 242 222 230 169 252 256 174 195 192 133 125 105 99 148 165 165 167 166 165
137 137 148 152 163 172 173 166 170 192 220 216 216 219 219 231 240 243 242 247 254 258 261 261 263 263 265 268 276 279 281 282 285 282 281 283 282 281 277 273 270 263 255 250 247 245 247 247 251 256 260 266 273 277 279 282 293 296 292 282 261 245 263 275 271 251 232 199 207 215 243 259 198 198 143 111 127 122 104 124 150 147 149 153 156
146 152 158 172 169 165 171 178 187 206 219 227 221 225 222 227 232 243 243 244 247 254 256 257 258 260 260 266 268 276 278 281 282 285 286 287 286 283 280 277 272 266 263 255 245 244 245 247 252 254 258 260 260 264 268 271 271 271 273 275 266 280 275 263 262 260 256 165 205 213 242 260 184 176 126 107 129 127 124 124 133 149 149 153 155
149 164 166 158 165 172 175 187 197 197 220 228 222 227 225 229 224 231 241 240 252 256 261 255 255 250 254 264 273 278 280 280 281 278 283 288 287 287 288 288 285 281 277 270 267 254 246 247 247 248 250 253 254 253 254 254 255 257 256 251 252 264 262 259 264 257 266 187 198 177 214 238 135 169 112 110 88 71 109 123 131 136 137 146 154
158 159 157 159 166 186 199 196 195 201 224 236 232 231 231 236 236 234 234 242 256 255 259 262 245 248 254 258 268 275 277 281 279 277 275 277 279 277 281 282 280 278 278 281 274 274 270 266 256 252 255 254 257 256 253 246 243 242 245 248 249 238 251 252 253 262 264 245 183 174 207 201 157 192 155 141 189 130 94 137 142 141 140 123 143